Location: Edoum�
(0.9447°N, 10.6482°E)
Time: 00:29:01
(UTC+00:00)

Cosmos 405 - Pass Details

Date: 07 June 2020
Orbit: 451 x 464 km, 81.3° (Epoch: 13 July)

Event Time Altitude Azimuth Distance (km) Brightness Sun altitude
Rises 04:32:37 0° 344° (NNW) 2,477 6.8 -9.7°
Reaches altitude 10° 04:34:45 10° 337° (NNW) 1,606 5.7 -9.2°
Maximum altitude 04:38:05 41° 265° (W) 677 3.4 -8.4°
Drops below altitude 10° 04:41:26 10° 193° (SSW) 1,613 5.4 -7.7°
Sets 04:43:35 0° 186° (S) 2,489 6.4 -7.2°
